Location: Unspecified
(33.2407°S, 0.0000°E)
Time: 09:40:35
(UTC+00:00)

Envisat - Pass Details

Date: 26 May 2019
Orbit: 764 x 766 km, 98.1° (Epoch: 19 June)

Event Time Altitude Azimuth Distance (km) Brightness Sun altitude
Rises 05:51:16 0° 36° (NE) 3,221 7.2 -12.5°
Reaches altitude 10° 05:53:43 10° 45° (NE) 2,303 6.5 -12.0°
Maximum altitude 05:58:17 35° 109° (ESE) 1,241 4.7 -11.1°
Drops below altitude 10° 06:02:54 10° 173° (S) 2,330 5.4 -10.2°
Sets 06:05:23 0° 181° (S) 3,264 6.1 -9.7°
